Regional Weather Roundup
Issued by NWS Sioux Falls, SD

Home | Current Version | Previous Version | Graphics & Text | Print | Product List | Glossary Off
Versions: 1 2 3 4 5 6 7 8 9 10 11 12 13 14 15 16 17 18 19 20 21 22 23 24 25 26 27 28 29 30 31 32 33 34 35 36 37 38 39 40 41 42 43 44 45 46 47 48 49 50

000
ASUS43 KFSD 230410
RWRFSD

WEATHER ROUNDUP FOR SE SOUTH DAKOTA/SW MINNESOTA/NW IOWA
NATIONAL WEATHER SERVICE SIOUX FALLS SD
1100 PM CDT WED MAR 22 2017

NOTE: "FAIR" INDICATES FEW OR NO CLOUDS BELOW 12,000 FEET WITH NO
SIGNIFICANT WEATHER AND OR OBSTRUCTIONS TO VISIBILITY.


SDZ038>040-050-052>070-230500-
SOUTHEAST SOUTH DAKOTA

CITY           SKY/WX    TMP DP  RH WIND       PRES   REMARKS
BROOKINGS      CLOUDY    36  25  64 S18G26    30.08S
CHAMBERLAIN    CLOUDY    45  27  50 SE12      29.94F
HURON          PTCLDY    39  28  64 S18G29    30.00F
MADISON        CLOUDY    36  28  75 S21G29    30.07S
MITCHELL       CLOUDY    42  29  59 SE26G37   30.03F
SIOUX FALLS    CLOUDY    39  27  62 S22G30    30.10F
WINNER         FAIR      48  29  47 S24G31    29.91F
YANKTON        CLOUDY    41  25  52 SE15      30.06F
$$

MNZ071-072-080-081-089-090-097-098-230500-
SOUTHWEST MINNESOTA

CITY           SKY/WX    TMP DP  RH WIND       PRES   REMARKS
FAIRMONT       CLOUDY    36  23  59 SE21      30.20F
JACKSON        CLOUDY    36  25  64 SE14G21   30.18F
LUVERNE        CLOUDY    36  25  64 SE16      30.14S
MARSHALL       CLOUDY    37  25  61 S21       30.14F
MONTEVIDEO     CLOUDY    36  25  64 S14G24    30.17F
PIPESTONE      CLOUDY    36  21  55 S18G25    30.09F
REDWOOD FALLS  CLOUDY    36  23  59 SE20G26   30.18F
TRACY          CLOUDY    37  27  69 S16       30.15S
WINDOM         MOCLDY    37  23  56 SE14G23   30.17F
WORTHINGTON    PTCLDY    36  23  59 SE14      30.16S
$$

IAZ001>003-012>014-020>022-031-032-NEZ013-014-SDZ071-230500-
NORTHWEST IOWA

CITY           SKY/WX    TMP DP  RH WIND       PRES   REMARKS
CHEROKEE       CLOUDY    40  26  56 SE15G22   30.18F
DENISON        CLOUDY    41  25  52 SE9G18    30.18S
ESTHERVILLE    CLOUDY    35  25  66 SE22      30.18F WCI  23
LE MARS        CLOUDY    41  27  56 SE15G25   30.15F
ORANGE CITY    CLOUDY    39  27  60 SE13G20   30.14F
SHELDON        CLOUDY    37  28  70 SE20      30.14F
SIOUX CITY     CLOUDY    42  26  53 SE17      30.14F
SPENCER        CLOUDY    38  23  55 SE13      30.18F
STORM LAKE     CLOUDY    39  25  56 SE18G28   30.18S
$$

ABBREVIATIONS USED IN REMARKS
   TC - TEMPERATURE IN CELSIUS
  WCI - WIND CHILL INDEX
   HX - HEAT INDEX
  VSB - VISIBILITY





USA.gov is the U.S. government's official web portal to all federal, state and local government web resources and services.